Year,Month,Day,Hour,Minute,Value (Times are PST for temperature in C)
2020,04,10,00,00,7.10
2020,04,10,00,01,7.10
2020,04,10,00,02,7.10
2020,04,10,00,03,7.10
2020,04,10,00,04,7.10
2020,04,10,00,05,7.10
2020,04,10,00,06,7.10
2020,04,10,00,07,7.10
2020,04,10,00,08,7.10
2020,04,10,00,09,7.10
2020,04,10,00,10,7.10
2020,04,10,00,11,7.10
2020,04,10,00,12,7.10
2020,04,10,00,13,7.10
2020,04,10,00,14,7.10
2020,04,10,00,15,7.10
2020,04,10,00,16,7.10
2020,04,10,00,17,7.10
2020,04,10,00,18,7.10
2020,04,10,00,19,7.10
2020,04,10,00,20,7.10
2020,04,10,00,21,7.10
2020,04,10,00,22,7.10
2020,04,10,00,23,7.10
2020,04,10,00,24,7.10
2020,04,10,00,25,7.10
2020,04,10,00,26,7.00
2020,04,10,00,27,7.00
2020,04,10,00,28,7.00
2020,04,10,00,29,7.00
2020,04,10,00,30,7.00
2020,04,10,00,31,7.00
2020,04,10,00,32,6.90
2020,04,10,00,33,6.90
2020,04,10,00,34,6.90
2020,04,10,00,35,6.90
2020,04,10,00,36,6.90
2020,04,10,00,37,6.90
2020,04,10,00,38,6.90
2020,04,10,00,39,6.80
2020,04,10,00,40,6.80
2020,04,10,00,41,6.80
2020,04,10,00,42,6.80
2020,04,10,00,43,6.80
2020,04,10,00,44,6.80
2020,04,10,00,45,6.80
2020,04,10,00,46,6.80
2020,04,10,00,47,6.80
2020,04,10,00,48,6.80
2020,04,10,00,49,6.80
2020,04,10,00,50,6.80
2020,04,10,00,51,6.80
2020,04,10,00,52,6.90
2020,04,10,00,53,6.90
2020,04,10,00,54,6.90
2020,04,10,00,55,6.90
2020,04,10,00,56,6.90
2020,04,10,00,57,6.90
2020,04,10,00,58,6.90
2020,04,10,00,59,6.90
2020,04,10,01,00,6.90
2020,04,10,01,01,6.90
2020,04,10,01,02,6.90
2020,04,10,01,03,6.90
2020,04,10,01,04,6.90
2020,04,10,01,05,6.90
2020,04,10,01,06,6.90
2020,04,10,01,07,6.90
2020,04,10,01,08,6.90
2020,04,10,01,09,6.90
2020,04,10,01,10,6.80
2020,04,10,01,11,6.80
2020,04,10,01,12,6.80
2020,04,10,01,13,6.80
2020,04,10,01,14,6.80
2020,04,10,01,15,6.70
2020,04,10,01,16,6.70
2020,04,10,01,17,6.70
2020,04,10,01,18,6.70
2020,04,10,01,19,6.70
2020,04,10,01,20,6.60
2020,04,10,01,21,6.60
2020,04,10,01,22,6.60
2020,04,10,01,23,6.60
2020,04,10,01,24,6.50
2020,04,10,01,25,6.50
2020,04,10,01,26,6.50
2020,04,10,01,27,6.50
2020,04,10,01,28,6.50
2020,04,10,01,29,6.50
2020,04,10,01,30,6.50
2020,04,10,01,31,6.50
2020,04,10,01,32,6.50
2020,04,10,01,33,6.40
2020,04,10,01,34,6.40
2020,04,10,01,35,6.40
2020,04,10,01,36,6.40
2020,04,10,01,37,6.40
2020,04,10,01,38,6.40
2020,04,10,01,39,6.40
2020,04,10,01,40,6.40
2020,04,10,01,41,6.40
2020,04,10,01,42,6.40
2020,04,10,01,43,6.40
2020,04,10,01,44,6.40
2020,04,10,01,45,6.40
2020,04,10,01,46,6.40
2020,04,10,01,47,6.40
2020,04,10,01,48,6.40
2020,04,10,01,49,6.30
2020,04,10,01,50,6.30
2020,04,10,01,51,6.30
2020,04,10,01,52,6.30
2020,04,10,01,53,6.30
2020,04,10,01,54,6.30
2020,04,10,01,55,6.30
2020,04,10,01,56,6.30
2020,04,10,01,57,6.30
2020,04,10,01,58,6.30
2020,04,10,01,59,6.30
2020,04,10,02,00,6.30
2020,04,10,02,01,6.30
2020,04,10,02,02,6.30
2020,04,10,02,03,6.30
2020,04,10,02,04,6.30
2020,04,10,02,05,6.30
2020,04,10,02,06,6.30
2020,04,10,02,07,6.30
2020,04,10,02,08,6.30
2020,04,10,02,09,6.30
2020,04,10,02,10,6.30
2020,04,10,02,11,6.30
2020,04,10,02,12,6.30
2020,04,10,02,13,6.30
2020,04,10,02,14,6.30
2020,04,10,02,15,6.30
2020,04,10,02,16,6.30
2020,04,10,02,17,6.30
2020,04,10,02,18,6.30
2020,04,10,02,19,6.30
2020,04,10,02,20,6.30
2020,04,10,02,21,6.30
2020,04,10,02,22,6.30
2020,04,10,02,23,6.30
2020,04,10,02,24,6.30
2020,04,10,02,25,6.30
2020,04,10,02,26,6.30
2020,04,10,02,27,6.40
2020,04,10,02,28,6.40
2020,04,10,02,29,6.40
2020,04,10,02,30,6.40
2020,04,10,02,31,6.40
2020,04,10,02,32,6.40
2020,04,10,02,33,6.40
2020,04,10,02,34,6.40
2020,04,10,02,35,6.40
2020,04,10,02,36,6.40
2020,04,10,02,37,6.40
2020,04,10,02,38,6.40
2020,04,10,02,39,6.40
2020,04,10,02,40,6.40
2020,04,10,02,41,6.30
2020,04,10,02,42,6.30
2020,04,10,02,43,6.30
2020,04,10,02,44,6.30
2020,04,10,02,45,6.30
2020,04,10,02,46,6.30
2020,04,10,02,47,6.30
2020,04,10,02,48,6.30
2020,04,10,02,49,6.30
2020,04,10,02,50,6.30
2020,04,10,02,51,6.30
2020,04,10,02,52,6.30
2020,04,10,02,53,6.30
2020,04,10,02,54,6.30
2020,04,10,02,55,6.30
2020,04,10,02,56,6.30
2020,04,10,02,57,6.30
2020,04,10,02,58,6.20
2020,04,10,02,59,6.20
2020,04,10,03,00,6.20
2020,04,10,03,01,6.20
2020,04,10,03,02,6.20
2020,04,10,03,03,6.20
2020,04,10,03,04,6.20
2020,04,10,03,05,6.20
2020,04,10,03,06,6.20
2020,04,10,03,07,6.20
2020,04,10,03,08,6.20
2020,04,10,03,09,6.10
2020,04,10,03,10,6.10
2020,04,10,03,11,6.10
2020,04,10,03,12,6.10
2020,04,10,03,13,6.10
2020,04,10,03,14,6.10
2020,04,10,03,15,6.10
2020,04,10,03,16,6.10
2020,04,10,03,17,6.10
2020,04,10,03,18,6.10
2020,04,10,03,19,6.10
2020,04,10,03,20,6.10
2020,04,10,03,21,6.10
2020,04,10,03,22,6.10
2020,04,10,03,23,6.10
2020,04,10,03,24,6.10
2020,04,10,03,25,6.20
2020,04,10,03,26,6.20
2020,04,10,03,27,6.20
2020,04,10,03,28,6.20
2020,04,10,03,29,6.10
2020,04,10,03,30,6.20
2020,04,10,03,31,6.20
2020,04,10,03,32,6.20
2020,04,10,03,33,6.20
2020,04,10,03,34,6.20
2020,04,10,03,35,6.20
2020,04,10,03,36,6.10
2020,04,10,03,37,6.20
2020,04,10,03,38,6.10
2020,04,10,03,39,6.10
2020,04,10,03,40,6.10
2020,04,10,03,41,6.10
2020,04,10,03,42,6.10
2020,04,10,03,43,6.10
2020,04,10,03,44,6.10
2020,04,10,03,45,6.10
2020,04,10,03,46,6.10
2020,04,10,03,47,6.10
2020,04,10,03,48,6.10
2020,04,10,03,49,6.10
2020,04,10,03,50,6.10
2020,04,10,03,51,6.10
2020,04,10,03,52,6.10
2020,04,10,03,53,6.10
2020,04,10,03,54,6.10
2020,04,10,03,55,6.10
2020,04,10,03,56,6.00
2020,04,10,03,57,6.00
2020,04,10,03,58,6.10
2020,04,10,03,59,6.00
2020,04,10,04,00,6.00
2020,04,10,04,01,6.00
2020,04,10,04,02,6.00
2020,04,10,04,03,6.00
2020,04,10,04,04,6.00
2020,04,10,04,05,6.00
2020,04,10,04,06,6.00
2020,04,10,04,07,6.00
2020,04,10,04,08,6.00
2020,04,10,04,09,5.90
2020,04,10,04,10,6.00
2020,04,10,04,11,5.90
2020,04,10,04,12,5.90
2020,04,10,04,13,5.90
2020,04,10,04,14,5.90
2020,04,10,04,15,5.90
2020,04,10,04,16,5.90
2020,04,10,04,17,5.90
2020,04,10,04,18,5.90
2020,04,10,04,19,5.90
2020,04,10,04,20,5.90
2020,04,10,04,21,5.90
2020,04,10,04,22,5.90
2020,04,10,04,23,5.90
2020,04,10,04,24,5.90
2020,04,10,04,25,5.90
2020,04,10,04,26,5.90
2020,04,10,04,27,5.90
2020,04,10,04,28,5.90
2020,04,10,04,29,5.90
2020,04,10,04,30,5.90
2020,04,10,04,31,5.90
2020,04,10,04,32,5.90
2020,04,10,04,33,5.90
2020,04,10,04,34,5.90
2020,04,10,04,35,5.90
2020,04,10,04,36,5.90
2020,04,10,04,37,5.90
2020,04,10,04,38,5.90
2020,04,10,04,39,5.90
2020,04,10,04,40,5.90
2020,04,10,04,41,5.80
2020,04,10,04,42,5.80
2020,04,10,04,43,5.80
2020,04,10,04,44,5.80
2020,04,10,04,45,5.80
2020,04,10,04,46,5.80
2020,04,10,04,47,5.80
2020,04,10,04,48,5.80
2020,04,10,04,49,5.80
2020,04,10,04,50,5.80
2020,04,10,04,51,5.80
2020,04,10,04,52,5.80
2020,04,10,04,53,5.80
2020,04,10,04,54,5.80
2020,04,10,04,55,5.80
2020,04,10,04,56,5.80
2020,04,10,04,57,5.80
2020,04,10,04,58,5.80
2020,04,10,04,59,5.80
2020,04,10,05,00,5.80
2020,04,10,05,01,5.80
2020,04,10,05,02,5.80
2020,04,10,05,03,5.80
2020,04,10,05,04,5.80
2020,04,10,05,05,5.80
2020,04,10,05,06,5.80
2020,04,10,05,07,5.80
2020,04,10,05,08,5.80
2020,04,10,05,09,5.80
2020,04,10,05,10,5.80
2020,04,10,05,11,5.80
2020,04,10,05,12,5.80
2020,04,10,05,13,5.70
2020,04,10,05,14,5.80
2020,04,10,05,15,5.80
2020,04,10,05,16,5.80
2020,04,10,05,17,5.80
2020,04,10,05,18,5.80
2020,04,10,05,19,5.80
2020,04,10,05,20,5.80
2020,04,10,05,21,5.80
2020,04,10,05,22,5.80
2020,04,10,05,23,5.80
2020,04,10,05,24,5.90
2020,04,10,05,25,5.90
2020,04,10,05,26,5.90
2020,04,10,05,27,6.00
2020,04,10,05,28,6.00
2020,04,10,05,29,6.00
2020,04,10,05,30,6.00
2020,04,10,05,31,6.00
2020,04,10,05,32,6.00
2020,04,10,05,33,6.00
2020,04,10,05,34,6.00
2020,04,10,05,35,6.00
2020,04,10,05,36,6.10
2020,04,10,05,37,6.10
2020,04,10,05,38,6.10
2020,04,10,05,39,6.10
2020,04,10,05,40,6.10
2020,04,10,05,41,6.10
2020,04,10,05,42,6.10
2020,04,10,05,43,6.10
2020,04,10,05,44,6.10
2020,04,10,05,45,6.20
2020,04,10,05,46,6.20
2020,04,10,05,47,6.20
2020,04,10,05,48,6.20
2020,04,10,05,49,6.10
2020,04,10,05,50,6.10
2020,04,10,05,51,6.10
2020,04,10,05,52,6.10
2020,04,10,05,53,6.10
2020,04,10,05,54,6.10
2020,04,10,05,55,6.10
2020,04,10,05,56,6.10
2020,04,10,05,57,6.10
2020,04,10,05,58,6.10
2020,04,10,05,59,6.10
2020,04,10,06,00,6.10
2020,04,10,06,01,6.10
2020,04,10,06,02,6.10
2020,04,10,06,03,6.10
2020,04,10,06,04,6.10
2020,04,10,06,05,6.10
2020,04,10,06,06,6.10
2020,04,10,06,07,6.10
2020,04,10,06,08,6.10
2020,04,10,06,09,6.10
2020,04,10,06,10,6.10
2020,04,10,06,11,6.10
2020,04,10,06,12,6.10
2020,04,10,06,13,6.10
2020,04,10,06,14,6.10
2020,04,10,06,15,6.10
2020,04,10,06,16,6.10
2020,04,10,06,17,6.10
2020,04,10,06,18,6.10
2020,04,10,06,19,6.10
2020,04,10,06,20,6.10
2020,04,10,06,21,6.10
2020,04,10,06,22,6.10
2020,04,10,06,23,6.10
2020,04,10,06,24,6.00
2020,04,10,06,25,6.00
2020,04,10,06,26,6.00
2020,04,10,06,27,6.00
2020,04,10,06,28,5.90
2020,04,10,06,29,5.90
2020,04,10,06,30,5.90
2020,04,10,06,31,5.90
2020,04,10,06,32,5.80
2020,04,10,06,33,5.80
2020,04,10,06,34,5.80
2020,04,10,06,35,5.80
2020,04,10,06,36,5.70
2020,04,10,06,37,5.70
2020,04,10,06,38,5.70
2020,04,10,06,39,5.70
2020,04,10,06,40,5.70
2020,04,10,06,41,5.70
2020,04,10,06,42,5.70
2020,04,10,06,43,5.60
2020,04,10,06,44,5.60
2020,04,10,06,45,5.60
2020,04,10,06,46,5.60
2020,04,10,06,47,5.60
2020,04,10,06,48,5.50
2020,04,10,06,49,5.50
2020,04,10,06,50,5.50
2020,04,10,06,51,5.50
2020,04,10,06,52,5.50
2020,04,10,06,53,5.50
2020,04,10,06,54,5.50
2020,04,10,06,55,5.40
2020,04,10,06,56,5.40
2020,04,10,06,57,5.40
2020,04,10,06,58,5.40
2020,04,10,06,59,5.40
2020,04,10,07,00,5.40
2020,04,10,07,01,5.40
2020,04,10,07,02,5.50
2020,04,10,07,03,5.40
2020,04,10,07,04,5.40
2020,04,10,07,05,5.40
2020,04,10,07,06,5.40
2020,04,10,07,07,5.40
2020,04,10,07,08,5.40
2020,04,10,07,09,5.40
2020,04,10,07,10,5.40
2020,04,10,07,11,5.40
2020,04,10,07,12,5.40
2020,04,10,07,13,5.50
2020,04,10,07,14,5.50
2020,04,10,07,15,5.50
2020,04,10,07,16,5.60
2020,04,10,07,17,5.60
2020,04,10,07,18,5.60
2020,04,10,07,19,5.60
2020,04,10,07,20,5.60
2020,04,10,07,21,5.70
2020,04,10,07,22,5.70
2020,04,10,07,23,5.70
2020,04,10,07,24,5.70
2020,04,10,07,25,5.70
2020,04,10,07,26,5.80
2020,04,10,07,27,5.80
2020,04,10,07,28,5.80
2020,04,10,07,29,5.80
2020,04,10,07,30,5.90
2020,04,10,07,31,5.90
2020,04,10,07,32,5.90
2020,04,10,07,33,5.90
2020,04,10,07,34,6.00
2020,04,10,07,35,6.00
2020,04,10,07,36,6.00
2020,04,10,07,37,6.10
2020,04,10,07,38,6.10
2020,04,10,07,39,6.10
2020,04,10,07,40,6.20
2020,04,10,07,41,6.20
2020,04,10,07,42,6.20
2020,04,10,07,43,6.20
2020,04,10,07,44,6.30
2020,04,10,07,45,6.30
2020,04,10,07,46,6.30
2020,04,10,07,47,6.40
2020,04,10,07,48,6.40
2020,04,10,07,49,6.40
2020,04,10,07,50,6.40
2020,04,10,07,51,6.50
2020,04,10,07,52,6.50
2020,04,10,07,53,6.50
2020,04,10,07,54,6.60
2020,04,10,07,55,6.60
2020,04,10,07,56,6.70
2020,04,10,07,57,6.70
2020,04,10,07,58,6.80
2020,04,10,07,59,6.80
2020,04,10,08,00,6.80
2020,04,10,08,01,6.90
2020,04,10,08,02,6.90
2020,04,10,08,03,7.00
2020,04,10,08,04,7.00
2020,04,10,08,05,7.10
2020,04,10,08,06,7.20
2020,04,10,08,07,7.20
2020,04,10,08,08,7.30
2020,04,10,08,09,7.30
2020,04,10,08,10,7.30
2020,04,10,08,11,7.40
2020,04,10,08,12,7.50
2020,04,10,08,13,7.50
2020,04,10,08,14,7.60
2020,04,10,08,15,7.70
2020,04,10,08,16,7.70
2020,04,10,08,17,7.80
2020,04,10,08,18,7.90
2020,04,10,08,19,7.90
2020,04,10,08,20,8.00
2020,04,10,08,21,8.10
2020,04,10,08,22,8.20
2020,04,10,08,23,8.20
2020,04,10,08,24,8.30
2020,04,10,08,25,8.40
2020,04,10,08,26,8.50
2020,04,10,08,27,8.50
2020,04,10,08,28,8.60
2020,04,10,08,29,8.70
2020,04,10,08,30,8.80
2020,04,10,08,31,8.90
2020,04,10,08,32,9.00
2020,04,10,08,33,9.00
2020,04,10,08,34,9.20
2020,04,10,08,35,9.30
2020,04,10,08,36,9.40
2020,04,10,08,37,9.50
2020,04,10,08,38,9.60
2020,04,10,08,39,9.70
2020,04,10,08,40,9.80
2020,04,10,08,41,9.90
2020,04,10,08,42,10.00
2020,04,10,08,43,10.10
2020,04,10,08,44,10.20
2020,04,10,08,45,10.30
2020,04,10,08,46,10.40
2020,04,10,08,47,10.60
2020,04,10,08,48,10.70
2020,04,10,08,49,10.80
2020,04,10,08,50,10.90
2020,04,10,08,51,10.90
2020,04,10,08,52,11.00
2020,04,10,08,53,11.10
2020,04,10,08,54,11.10
2020,04,10,08,55,11.20
2020,04,10,08,56,11.20
2020,04,10,08,57,11.30
2020,04,10,08,58,11.30
2020,04,10,08,59,11.30
2020,04,10,09,00,11.40
2020,04,10,09,01,11.50
2020,04,10,09,02,11.60
2020,04,10,09,03,11.70
2020,04,10,09,04,11.80
2020,04,10,09,05,11.80
2020,04,10,09,06,11.90
2020,04,10,09,07,12.00
2020,04,10,09,08,12.00
2020,04,10,09,09,12.00
2020,04,10,09,10,12.00
2020,04,10,09,11,12.10
2020,04,10,09,12,12.10
2020,04,10,09,13,12.10
2020,04,10,09,14,12.20
2020,04,10,09,15,12.20
2020,04,10,09,16,12.20
2020,04,10,09,17,12.30
2020,04,10,09,18,12.30
2020,04,10,09,19,12.40
2020,04,10,09,20,12.50
2020,04,10,09,21,12.60
2020,04,10,09,22,12.70
2020,04,10,09,23,12.80
2020,04,10,09,24,12.90
2020,04,10,09,25,13.00
2020,04,10,09,26,13.00
2020,04,10,09,27,13.10
2020,04,10,09,28,13.20
2020,04,10,09,29,13.30
2020,04,10,09,30,13.40
2020,04,10,09,31,13.40
2020,04,10,09,32,13.40
2020,04,10,09,33,13.50
2020,04,10,09,34,13.60
2020,04,10,09,35,13.60
2020,04,10,09,36,13.70
2020,04,10,09,37,13.70
2020,04,10,09,38,13.80
2020,04,10,09,39,13.80
2020,04,10,09,40,13.90
2020,04,10,09,41,13.90
2020,04,10,09,42,13.90
2020,04,10,09,43,14.00
2020,04,10,09,44,14.00
2020,04,10,09,45,14.10
2020,04,10,09,46,14.20
2020,04,10,09,47,14.20
2020,04,10,09,48,14.30
2020,04,10,09,49,14.30
2020,04,10,09,50,14.30
2020,04,10,09,51,14.30
2020,04,10,09,52,14.30
2020,04,10,09,53,14.30
2020,04,10,09,54,14.30
2020,04,10,09,55,14.30
2020,04,10,09,56,14.30
2020,04,10,09,57,14.40
2020,04,10,09,58,14.40
2020,04,10,09,59,14.40
2020,04,10,10,00,14.40
2020,04,10,10,01,14.40
2020,04,10,10,02,14.30
2020,04,10,10,03,14.30
2020,04,10,10,04,14.30
2020,04,10,10,05,14.30
2020,04,10,10,06,14.20
2020,04,10,10,07,14.20
2020,04,10,10,08,14.10
2020,04,10,10,09,14.10
2020,04,10,10,10,14.00
2020,04,10,10,11,14.00
2020,04,10,10,12,13.90
2020,04,10,10,13,13.80
2020,04,10,10,14,13.80
2020,04,10,10,15,13.70
2020,04,10,10,16,13.70
2020,04,10,10,17,13.60
2020,04,10,10,18,13.60
2020,04,10,10,19,13.50
2020,04,10,10,20,13.50
2020,04,10,10,21,13.40
2020,04,10,10,22,13.40
2020,04,10,10,23,13.30
2020,04,10,10,24,13.30
2020,04,10,10,25,13.30
2020,04,10,10,26,13.20
2020,04,10,10,27,13.20
2020,04,10,10,28,13.10
2020,04,10,10,29,13.10
2020,04,10,10,30,13.00
2020,04,10,10,31,13.00
2020,04,10,10,32,12.90
2020,04,10,10,33,12.90
2020,04,10,10,34,12.80
2020,04,10,10,35,12.80
2020,04,10,10,36,12.80
2020,04,10,10,37,12.80
2020,04,10,10,38,12.80
2020,04,10,10,39,12.70
2020,04,10,10,40,12.70
2020,04,10,10,41,12.70
2020,04,10,10,42,12.70
2020,04,10,10,43,12.70
2020,04,10,10,44,12.70
2020,04,10,10,45,12.70
2020,04,10,10,46,12.70
2020,04,10,10,47,12.70
2020,04,10,10,48,12.70
2020,04,10,10,49,12.70
2020,04,10,10,50,12.70
2020,04,10,10,51,12.70
2020,04,10,10,52,12.70
2020,04,10,10,53,12.70
2020,04,10,10,54,12.70
2020,04,10,10,55,12.70
2020,04,10,10,56,12.70
2020,04,10,10,57,12.70
2020,04,10,10,58,12.70
2020,04,10,10,59,12.70
2020,04,10,11,00,12.70
2020,04,10,11,01,12.70
2020,04,10,11,02,12.70
2020,04,10,11,03,12.70
2020,04,10,11,04,12.70
2020,04,10,11,05,12.70
2020,04,10,11,06,12.60
2020,04,10,11,07,12.60
2020,04,10,11,08,12.60
2020,04,10,11,09,12.60
2020,04,10,11,10,12.60
2020,04,10,11,11,12.50
2020,04,10,11,12,12.50
2020,04,10,11,13,12.40
2020,04,10,11,14,12.40
2020,04,10,11,15,12.40
2020,04,10,11,16,12.40
2020,04,10,11,17,12.40
2020,04,10,11,18,12.40
2020,04,10,11,19,12.30
2020,04,10,11,20,12.30
2020,04,10,11,21,12.30
2020,04,10,11,22,12.30
2020,04,10,11,23,12.30
2020,04,10,11,24,12.30
2020,04,10,11,25,12.30
2020,04,10,11,26,12.30
2020,04,10,11,27,12.30
2020,04,10,11,28,12.30
2020,04,10,11,29,12.30
2020,04,10,11,30,12.30
2020,04,10,11,31,12.30
2020,04,10,11,32,12.30
2020,04,10,11,33,12.30
2020,04,10,11,34,12.30
2020,04,10,11,35,12.30
2020,04,10,11,36,12.30
2020,04,10,11,37,12.30
2020,04,10,11,38,12.30
2020,04,10,11,39,12.30
2020,04,10,11,40,12.30
2020,04,10,11,41,12.40
2020,04,10,11,42,12.40
2020,04,10,11,43,12.40
2020,04,10,11,44,12.40
2020,04,10,11,45,12.40
2020,04,10,11,46,12.40
2020,04,10,11,47,12.50
2020,04,10,11,48,12.50
2020,04,10,11,49,12.50
2020,04,10,11,50,12.50
2020,04,10,11,51,12.50
2020,04,10,11,52,12.50
2020,04,10,11,53,12.50
2020,04,10,11,54,12.60
2020,04,10,11,55,12.60
2020,04,10,11,56,12.60
2020,04,10,11,57,12.60
2020,04,10,11,58,12.60
2020,04,10,11,59,12.60
2020,04,10,12,00,12.60
2020,04,10,12,01,12.50
2020,04,10,12,02,12.40
2020,04,10,12,03,12.30
2020,04,10,12,04,12.20
2020,04,10,12,05,12.10
2020,04,10,12,06,11.90
2020,04,10,12,07,11.90
2020,04,10,12,08,11.80
2020,04,10,12,09,11.70
2020,04,10,12,10,11.70
2020,04,10,12,11,11.70
2020,04,10,12,12,11.70
2020,04,10,12,13,11.70
2020,04,10,12,14,11.70
2020,04,10,12,15,11.70
2020,04,10,12,16,11.70
2020,04,10,12,17,11.70
2020,04,10,12,18,11.70
2020,04,10,12,19,11.70
2020,04,10,12,20,11.70
2020,04,10,12,21,11.70
2020,04,10,12,22,11.70
2020,04,10,12,23,11.70
2020,04,10,12,24,11.70
2020,04,10,12,25,11.70
2020,04,10,12,26,11.80
2020,04,10,12,27,11.80
2020,04,10,12,28,11.80
2020,04,10,12,29,11.90
2020,04,10,12,30,12.00
2020,04,10,12,31,12.10
2020,04,10,12,32,12.20
2020,04,10,12,33,12.20
2020,04,10,12,34,12.20
2020,04,10,12,35,12.30
2020,04,10,12,36,12.30
2020,04,10,12,37,12.20
2020,04,10,12,38,12.20
2020,04,10,12,39,12.20
2020,04,10,12,40,12.30
2020,04,10,12,41,12.30
2020,04,10,12,42,12.30
2020,04,10,12,43,12.30
2020,04,10,12,44,12.30
2020,04,10,12,45,12.30
2020,04,10,12,46,12.40
2020,04,10,12,47,12.40
2020,04,10,12,48,12.40
2020,04,10,12,49,12.40
2020,04,10,12,50,12.40
2020,04,10,12,51,12.40
2020,04,10,12,52,12.40
2020,04,10,12,53,12.40
2020,04,10,12,54,12.40
2020,04,10,12,55,12.40
2020,04,10,12,56,12.40
2020,04,10,12,57,12.30
2020,04,10,12,58,12.30
2020,04,10,12,59,12.20
2020,04,10,13,00,12.20
2020,04,10,13,01,12.20
2020,04,10,13,02,12.10
2020,04,10,13,03,12.10
2020,04,10,13,04,12.00
2020,04,10,13,05,11.90
2020,04,10,13,06,11.90
2020,04,10,13,07,11.80
2020,04,10,13,08,11.80
2020,04,10,13,09,11.80
2020,04,10,13,10,11.70
2020,04,10,13,11,11.70
2020,04,10,13,12,11.70
2020,04,10,13,13,11.70
2020,04,10,13,14,11.70
2020,04,10,13,15,11.70
2020,04,10,13,16,11.70
2020,04,10,13,17,11.70
2020,04,10,13,18,11.70
2020,04,10,13,19,11.80
2020,04,10,13,20,11.90
2020,04,10,13,21,11.90
2020,04,10,13,22,11.90
2020,04,10,13,23,11.90
2020,04,10,13,24,11.90
2020,04,10,13,25,11.80
2020,04,10,13,26,11.80
2020,04,10,13,27,11.70
2020,04,10,13,28,11.70
2020,04,10,13,29,11.60
2020,04,10,13,30,11.60
2020,04,10,13,31,11.60
2020,04,10,13,32,11.60
2020,04,10,13,33,11.60
2020,04,10,13,34,11.50
2020,04,10,13,35,11.50
2020,04,10,13,36,11.50
2020,04,10,13,37,11.50
2020,04,10,13,38,11.50
2020,04,10,13,39,11.50
2020,04,10,13,40,11.60
2020,04,10,13,41,11.60
2020,04,10,13,42,11.60
2020,04,10,13,43,11.60
2020,04,10,13,44,11.60
2020,04,10,13,45,11.60
2020,04,10,13,46,11.60
2020,04,10,13,47,11.60
2020,04,10,13,48,11.60
2020,04,10,13,49,11.60
2020,04,10,13,50,11.60
2020,04,10,13,51,11.60
2020,04,10,13,52,11.60
2020,04,10,13,53,11.60
2020,04,10,13,54,11.60
2020,04,10,13,55,11.60
2020,04,10,13,56,11.60
2020,04,10,13,57,11.70
2020,04,10,13,58,11.70
2020,04,10,13,59,11.70
2020,04,10,14,00,11.70
2020,04,10,14,01,11.70
2020,04,10,14,02,11.70
2020,04,10,14,03,11.70
2020,04,10,14,04,11.70
2020,04,10,14,05,11.70
2020,04,10,14,06,11.60
2020,04,10,14,07,11.60
2020,04,10,14,08,11.60
2020,04,10,14,09,11.60
2020,04,10,14,10,11.60
2020,04,10,14,11,11.60
2020,04,10,14,12,11.60
2020,04,10,14,13,11.60
2020,04,10,14,14,11.60
2020,04,10,14,15,11.60
2020,04,10,14,16,11.60
2020,04,10,14,17,11.60
2020,04,10,14,18,11.60
2020,04,10,14,19,11.60
2020,04,10,14,20,11.70
2020,04,10,14,21,11.70
2020,04,10,14,22,11.70
2020,04,10,14,23,11.70
2020,04,10,14,24,11.70
2020,04,10,14,25,11.70
2020,04,10,14,26,11.70
2020,04,10,14,27,11.70
2020,04,10,14,28,11.60
2020,04,10,14,29,11.60
2020,04,10,14,30,11.60
2020,04,10,14,31,11.60
2020,04,10,14,32,11.60
2020,04,10,14,33,11.70
2020,04,10,14,34,11.70
2020,04,10,14,35,11.80
2020,04,10,14,36,11.80
2020,04,10,14,37,11.90
2020,04,10,14,38,11.90
2020,04,10,14,39,11.90
2020,04,10,14,40,11.90
2020,04,10,14,41,12.00
2020,04,10,14,42,12.00
2020,04,10,14,43,12.10
2020,04,10,14,44,12.10
2020,04,10,14,45,12.10
2020,04,10,14,46,12.20
2020,04,10,14,47,12.20
2020,04,10,14,48,12.20
2020,04,10,14,49,12.20
2020,04,10,14,50,12.20
2020,04,10,14,51,12.20
2020,04,10,14,52,12.20
2020,04,10,14,53,12.30
2020,04,10,14,54,12.30
2020,04,10,14,55,12.30
2020,04,10,14,56,12.30
2020,04,10,14,57,12.30
2020,04,10,14,58,12.30
2020,04,10,14,59,12.30
2020,04,10,15,00,12.20
2020,04,10,15,01,12.20
2020,04,10,15,02,12.20
2020,04,10,15,03,12.20
2020,04,10,15,04,12.20
2020,04,10,15,05,12.20
2020,04,10,15,06,12.20
2020,04,10,15,07,12.10
2020,04,10,15,08,12.10
2020,04,10,15,09,12.10
2020,04,10,15,10,12.10
2020,04,10,15,11,12.00
2020,04,10,15,12,12.00
2020,04,10,15,13,11.90
2020,04,10,15,14,11.90
2020,04,10,15,15,11.90
2020,04,10,15,16,11.80
2020,04,10,15,17,11.80
2020,04,10,15,18,11.80
2020,04,10,15,19,11.80
2020,04,10,15,20,11.70
2020,04,10,15,21,11.70
2020,04,10,15,22,11.70
2020,04,10,15,23,11.70
2020,04,10,15,24,11.70
2020,04,10,15,25,11.70
2020,04,10,15,26,11.70
2020,04,10,15,27,11.70
2020,04,10,15,28,11.70
2020,04,10,15,29,11.70
2020,04,10,15,30,11.70
2020,04,10,15,31,11.80
2020,04,10,15,32,11.80
2020,04,10,15,33,11.80
2020,04,10,15,34,11.70
2020,04,10,15,35,11.70
2020,04,10,15,36,11.70
2020,04,10,15,37,11.70
2020,04,10,15,38,11.70
2020,04,10,15,39,11.70
2020,04,10,15,40,11.70
2020,04,10,15,41,11.70
2020,04,10,15,42,11.70
2020,04,10,15,43,11.80
2020,04,10,15,44,11.80
2020,04,10,15,45,11.80
2020,04,10,15,46,11.80
2020,04,10,15,47,11.80
2020,04,10,15,48,11.80
2020,04,10,15,49,11.80
2020,04,10,15,50,11.80
2020,04,10,15,51,11.80
2020,04,10,15,52,11.80
2020,04,10,15,53,11.80
2020,04,10,15,54,11.80
2020,04,10,15,55,11.90
2020,04,10,15,56,11.90
2020,04,10,15,57,11.90
2020,04,10,15,58,11.90
2020,04,10,15,59,12.00
2020,04,10,16,00,12.00
2020,04,10,16,01,12.00
2020,04,10,16,02,12.10
2020,04,10,16,03,12.10
2020,04,10,16,04,12.20
2020,04,10,16,05,12.20
2020,04,10,16,06,12.20
2020,04,10,16,07,12.20
2020,04,10,16,08,12.20
2020,04,10,16,09,12.30
2020,04,10,16,10,12.30
2020,04,10,16,11,12.30
2020,04,10,16,12,12.30
2020,04,10,16,13,12.30
2020,04,10,16,14,12.20
2020,04,10,16,15,12.20
2020,04,10,16,16,12.20
2020,04,10,16,17,12.10
2020,04,10,16,18,12.10
2020,04,10,16,19,12.10
2020,04,10,16,20,12.00
2020,04,10,16,21,12.00
2020,04,10,16,22,11.90
2020,04,10,16,23,11.90
2020,04,10,16,24,11.90
2020,04,10,16,25,11.90
2020,04,10,16,26,11.90
2020,04,10,16,27,11.90
2020,04,10,16,28,11.90
2020,04,10,16,29,11.90
2020,04,10,16,30,12.00
2020,04,10,16,31,12.00
2020,04,10,16,32,12.10
2020,04,10,16,33,12.10
2020,04,10,16,34,12.10
2020,04,10,16,35,12.20
2020,04,10,16,36,12.20
2020,04,10,16,37,12.20
2020,04,10,16,38,12.10
2020,04,10,16,39,12.10
2020,04,10,16,40,12.10
2020,04,10,16,41,12.10
2020,04,10,16,42,12.20
2020,04,10,16,43,12.20
2020,04,10,16,44,12.20
2020,04,10,16,45,12.20
2020,04,10,16,46,12.20
2020,04,10,16,47,12.20
2020,04,10,16,48,12.20
2020,04,10,16,49,12.30
2020,04,10,16,50,12.30
2020,04,10,16,51,12.30
2020,04,10,16,52,12.40
2020,04,10,16,53,12.50
2020,04,10,16,54,12.50
2020,04,10,16,55,12.60
2020,04,10,16,56,12.70
2020,04,10,16,57,12.80
2020,04,10,16,58,12.90
2020,04,10,16,59,13.00
2020,04,10,17,00,13.20
2020,04,10,17,01,13.20
2020,04,10,17,02,13.30
2020,04,10,17,03,13.40
2020,04,10,17,04,13.50
2020,04,10,17,05,13.60
2020,04,10,17,06,13.70
2020,04,10,17,07,13.80
2020,04,10,17,08,13.90
2020,04,10,17,09,14.00
2020,04,10,17,10,14.10
2020,04,10,17,11,14.20
2020,04,10,17,12,14.20
2020,04,10,17,13,14.30
2020,04,10,17,14,14.30
2020,04,10,17,15,14.40
2020,04,10,17,16,14.40
2020,04,10,17,17,14.40
2020,04,10,17,18,14.40
2020,04,10,17,19,14.30
2020,04,10,17,20,14.30
2020,04,10,17,21,14.20
2020,04,10,17,22,14.10
2020,04,10,17,23,14.10
2020,04,10,17,24,13.90
2020,04,10,17,25,13.90
2020,04,10,17,26,13.80
2020,04,10,17,27,13.70
2020,04,10,17,28,13.60
2020,04,10,17,29,13.50
2020,04,10,17,30,13.40
2020,04,10,17,31,13.40
2020,04,10,17,32,13.30
2020,04,10,17,33,13.30
2020,04,10,17,34,13.20
2020,04,10,17,35,13.10
2020,04,10,17,36,13.00
2020,04,10,17,37,13.00
2020,04,10,17,38,12.90
2020,04,10,17,39,12.90
2020,04,10,17,40,12.80
2020,04,10,17,41,12.70
2020,04,10,17,42,12.60